Location: Baia Mare
(47.6567°N, 23.5850°E)
Time: 13:32:15
(UTC+03:00)

ISS - Pass Details

Date: 31 July 2019
Orbit: 409 x 418 km, 51.6° (Epoch: 21 July)

Event Time Altitude Azimuth Distance (km) Brightness Sun altitude
Rises 23:03:10 0° 291° (WNW) 2,355 1.1 -16.2°
Reaches altitude 10° 23:05:22 10° 282° (WNW) 1,488 -0.3 -16.4°
Maximum altitude 23:08:26 35° 216° (SW) 692 -2.9 -16.7°
Enters shadow 23:08:52 33° 197° (SSW) 716 -2.9 -16.8°
